Location: Waco, TX
(31.5480°N, 97.1670°W)
Time: 08:50:20
(UTC-05:00)

ISS - Pass Details

Date: 18 October 2019
Orbit: 411 x 421 km, 51.6° (Epoch: 18 October)

Event Time Altitude Azimuth Distance (km) Brightness Sun altitude
Rises 17:16:38 0° 307° (NW) 2,342 0.4 18.8°
Reaches altitude 10° 17:18:48 10° 300° (WNW) 1,476 -0.4 18.4°
Maximum altitude 17:21:55 40° 229° (SW) 620 -1.5 17.8°
Drops below altitude 10° 17:25:02 10° 158° (SSE) 1,466 -0.9 17.2°
Sets 17:27:10 0° 151° (SSE) 2,323 0.0 16.7°
